This is the latest recevied weather packets stored in our database for station/object KC3ULW-13. If no packets are shown the sender has not sent any weather packets the latest 10 day(s).
| Time | Temp. | Humidity | Pressure | Rain* | Wind** | Luminosity | Snow |
|---|---|---|---|---|---|---|---|
| 1777476360 | 15.56° C | 94% | 1011.1 hPa | 1.27 mm | - | 97 W/m² | - |
| 1777476056 | 15.56° C | 94% | 1011.4 hPa | 0 mm | - | 75 W/m² | - |
| 1777475751 | 15.56° C | 94% | 1011.4 hPa | 0 mm | - | 42 W/m² | - |
| 1777475448 | 16.11° C | 94% | 1011.2 hPa | 0 mm | - | 97 W/m² | - |
| 1777475143 | 15.56° C | 94% | 1011.2 hPa | 0 mm | - | 151 W/m² | - |
| 1777474840 | 15.56° C | 94% | 1011.3 hPa | 0 mm | - | 109 W/m² | - |
| 1777474536 | 15.56° C | 94% | 1011.2 hPa | 0 mm | - | 75 W/m² | - |
| 1777474233 | 15.56° C | 94% | 1011.4 hPa | 0 mm | - | 75 W/m² | - |
| 1777473930 | 15° C | 94% | 1011.4 hPa | 0 mm | - | 66 W/m² | - |
| 1777473628 | 15° C | 94% | 1011.8 hPa | 0 mm | - | 112 W/m² | - |
| 1777473324 | 15° C | 94% | 1011.5 hPa | 0 mm | - | 88 W/m² | - |
| 1777473020 | 15° C | 94% | 1012 hPa | 0 mm | - | 88 W/m² | - |
| 1777472716 | 14.44° C | 94% | 1012.1 hPa | 0 mm | - | 61 W/m² | - |
| 1777472413 | 14.44° C | 94% | 1011.9 hPa | 0 mm | - | 56 W/m² | - |
| 1777472111 | 15° C | 94% | 1012 hPa | 0 mm | - | 80 W/m² | - |
| 1777471805 | 14.44° C | 94% | 1012.2 hPa | 0 mm | - | 58 W/m² | - |
| 1777471502 | 14.44° C | 94% | 1012.1 hPa | 0 mm | - | 74 W/m² | - |
| 1777471199 | 14.44° C | 94% | 1012 hPa | 0 mm | - | 106 W/m² | - |
| 1777470896 | 15° C | 93% | 1011.8 hPa | 0 mm | - | 161 W/m² | - |
| 1777470593 | 14.44° C | 93% | 1011.8 hPa | 0 mm | - | 183 W/m² | - |
| 1777470289 | 14.44° C | 93% | 1011.9 hPa | 0 mm | - | 260 W/m² | - |
| 1777469985 | 13.89° C | 93% | 1012.1 hPa | 0 mm | - | 162 W/m² | - |
| 1777469681 | 13.89° C | 93% | 1012.1 hPa | 1.78 mm | - | 115 W/m² | - |
| 1777469377 | 13.89° C | 92% | 1012.3 hPa | 1.78 mm | - | 75 W/m² | - |
| 1777469072 | 13.89° C | 92% | 1012.2 hPa | 3.05 mm | - | 32 W/m² | - |
* Rain latest hour (hover to see other rain measurements)
** Current wind speed in m/s (hover to see current wind gust speed)